Location: Burleson Alternative School
(32.5290°N, 97.3406°W)
Time: 08:49:58
(UTC+00:00)

Transit 2A Rocket - Pass Details

Date: 15 November 2024
Orbit: 586 x 903 km, 66.7° (Epoch: 06 December)

Event Time Altitude Azimuth Distance (km) Brightness Sun altitude
Rises 00:22:59 0° 335° (NNW) 3,171 8.3 -11.7°
Reaches altitude 10° 00:25:27 10° 336° (NNW) 2,192 7.5 -12.2°
Maximum altitude 00:30:25 80° 64° (ENE) 678 4.6 -13.2°
Drops below altitude 10° 00:34:55 10° 152° (SSE) 1,998 7.0 -14.1°
Sets 00:37:05 0° 153° (SSE) 2,868 7.8 -14.6°
